Powrót do katalogu

HEAD-3E

AktywnyŁącznośćLEO
NORAD 57630·PAYLOAD·🇨🇳 China

Wystrzelony Aug 14, 2023 z Xichang Satellite Launch Center

Loading…

Następne Przeloty (najbliższe 24 godziny)

TLE

ŚwieżeSource: Space-Track

Epoka: Sep 14, 2026, 08:34 UTC

1 57630U 23121E   26257.35697101  .00000513  00000-0  12813-3 0  9991
2 57630  45.0021 206.9153 0008534 358.6479   1.4355 14.63981668164958

Śledź HEAD-3E w czasie rzeczywistym z AllMySat

Download on the App Store